"Pseudo-MPEC" for P11878m

Created 2020 Oct 18 23:07:42 UT using Find_Orb

Click here for an explanation of pseudo-MPECs

 
 Astrometry: 
     P11878m  C2020 10 14[J3Bf?byXDQF,mXK;eIwH=f9X4#Wa?$AstrometryBi8UW.6K_6WF52
     P11878m  C2020 10 14-n]H3`E\XeO6,GaKL^odVJu]3e.L?YJ[^=ZtuFI1U3;[_SP#0TxGF52
     P11878m  C2020 10 14gdU:@NMj+/NHiHCiK.i[A_ll)V\#hF2\fa/0F9n.akQgyAHuZ!d_F52
     P11878m  C2020 10 16]du`Rusha4xKZd($LsVmrQome3IkwbNa7in2\s*ZDdQ/l/5ee\7pF51
     P11878m  C2020 10 16Q_[bM;JUVax$s:redacted;;FDODb-.click6vMU2eLcJa[2hv6xF51
     P11878m  C2020 10 16-Qv1$kL$iVHR\0`L`4\sSb6W#rClH3jUd@Ahhere1GFU#H-:XG@sF51
     P11878m  C2020 10 175lB\yBTB4WUX2sR-;Uas2for0ZLB[G;K#amBxmRiRcydvL]h48)-F51
     P11878m  C2020 10 17%9g+6#R+NVmAxkhwXHa1f7]\t%qg/XlHQ8#*DQ`kL8\;.3M0N8P?F51
     P11878m  C2020 10 17u2n!][dp'fpX%MIX:*nPy=Lfld1:)Yo@:Y6uE,explanation.$3F51
     P11878m  C2020 10 18JMk'AvuquR5[f5FZO^tbuJb[Xfo(::c56_-f7vh/1.DWi7rU25*\F51
     P11878m  C2020 10 18wenc4vWO:G?y.+j*sSo\RL%nwIPfSfcsZ'a08jJ_0#momQC!F%SMF51
     P11878m  C2020 10 18*!k[KuHXa1+ulm++70DG38=[C:6j?i=Ijb*o],(x3sdZXorBns0`F51
     P11878m  C2020 10 18jE)*[sIJjLn,1C=FA5YnnMIfI=9Y#*$a4_48cY2eOP/mPP\/y\WLF51

Station data:
(F51) Pan-STARRS 1, Haleakala  (N20.707235 W156.255910)  US/Hawaii.
   Observers N. Primak, A. Schultz, S. Watters, J. Thiel, T. Goggia. Measurer
   PS1 Science Consortium. 1.8-m Ritchey-Chrétien + CCD.
(F52) Pan-STARRS 2, Haleakala  (N20.707384 W156.255910)  US/Hawaii. 1.8-m
   Ritchey-Chrétien + CCD.

Orbital elements:  P11878m
   Perihelion 2020 May 1.337754 +/- 9.69 TT =  8:06:22 (JD 2458970.837754)
Epoch 2020 Oct 18.0 TT = JDT 2459140.5   Earth MOID: 0.8174   AutoNEOCP
M  41.15149730 +/- 4.2              (J2000 ecliptic)
n   0.24254952 +/- 0.0124           Peri.  253.77151 +/- 0.24
a   2.54645357 +/- 0.0868           Node    70.43447 +/- 0.9
e   0.3572322 +/- 0.0404            Incl.   30.05322 +/- 1.3
P   4.06                   H 19.0   G  0.15   U  9.8  
q 1.63677812 +/- 0.0499    Q 3.45612901 +/- 0.232
From 13 observations 2020 Oct. 14-18; mean residual 0".10
Residuals in arcseconds: 
201014 F52  .19-  .24-    201016 F51  .23+  .06+    201018 F51  .01-  .02-    
201014 F52  .10+  .10+    201017 F51  .04-  .18-    201018 F51  .11+  .02-    
201014 F52  .08+  .12+    201017 F51  .03+  .03-    201018 F51  .05-  .02-    
201016 F51  .05-  .08+    201017 F51  .12-  .07+    
201016 F51  .07-  .01-    201018 F51  .02-  .08+    

Ephemerides (geocentric):
Date (UTC) HH   RA              Dec         delta   r     elong  mag " sig PA
---- -- -- --  -------------   -----------  ------ ------ -----  --- ---- ---
2020 10 18 23  04 24 26.242   -01 29 49.42  1.2384 2.0767 136.4 22.0 .162  39
2020 10 19 00  04 24 23.741   -01 29 32.29  1.2382 2.0769 136.5 22.0 .173  37
2020 10 19 01  04 24 21.236   -01 29 15.14  1.2380 2.0771 136.5 22.0 .183  35
2020 10 19 02  04 24 18.726   -01 28 57.98  1.2379 2.0772 136.6 22.0 .194  33
2020 10 19 03  04 24 16.213   -01 28 40.79  1.2377 2.0774 136.6 22.0 .206  31
2020 10 19 04  04 24 13.696   -01 28 23.59  1.2376 2.0776 136.6 22.0 .217  30
2020 10 19 05  04 24 11.174   -01 28 06.37  1.2374 2.0777 136.7 22.0 .229  28
2020 10 19 06  04 24 08.649   -01 27 49.12  1.2373 2.0779 136.7 22.0 .242  27
2020 10 19 07  04 24 06.120   -01 27 31.86  1.2371 2.0781 136.8 22.0 .254  25
2020 10 19 08  04 24 03.587   -01 27 14.58  1.2370 2.0782 136.8 22.0 .267  24
2020 10 19 09  04 24 01.049   -01 26 57.28  1.2368 2.0784 136.9 22.0 .280  23
2020 10 19 10  04 23 58.508   -01 26 39.96  1.2367 2.0786 136.9 22.0 .294  22
2020 10 19 11  04 23 55.963   -01 26 22.62  1.2365 2.0787 137.0 22.0 .307  21
2020 10 19 12  04 23 53.414   -01 26 05.26  1.2364 2.0789 137.0 22.0 .321  20
2020 10 19 13  04 23 50.861   -01 25 47.88  1.2362 2.0791 137.1 22.0 .335  19
2020 10 19 14  04 23 48.304   -01 25 30.48  1.2361 2.0792 137.1 22.0 .349  18
2020 10 19 15  04 23 45.743   -01 25 13.06  1.2359 2.0794 137.1 22.0 .364  17
2020 10 19 16  04 23 43.178   -01 24 55.62  1.2358 2.0796 137.2 22.0 .379  16
2020 10 19 17  04 23 40.609   -01 24 38.16  1.2356 2.0798 137.2 22.0 .394  15
2020 10 19 18  04 23 38.036   -01 24 20.69  1.2355 2.0799 137.3 22.0 .409  15
2020 10 19 19  04 23 35.459   -01 24 03.19  1.2353 2.0801 137.3 22.0 .425  14
2020 10 19 20  04 23 32.878   -01 23 45.67  1.2352 2.0803 137.4 22.0 .441  13
2020 10 19 21  04 23 30.294   -01 23 28.14  1.2350 2.0804 137.4 22.0 .457  12
2020 10 19 22  04 23 27.705   -01 23 10.58  1.2349 2.0806 137.5 22.0 .474  12
2020 10 19 23  04 23 25.113   -01 22 53.00  1.2347 2.0808 137.5 22.0 .490  11
2020 10 20 00  04 23 22.516   -01 22 35.41  1.2346 2.0809 137.6 22.0 .507  10
2020 10 20 01  04 23 19.916   -01 22 17.79  1.2344 2.0811 137.6 22.0 .524  10
2020 10 20 02  04 23 17.311   -01 22 00.16  1.2343 2.0813 137.7 22.0 .542   9
2020 10 20 03  04 23 14.703   -01 21 42.50  1.2341 2.0814 137.7 22.0 .560   8
2020 10 20 04  04 23 12.091   -01 21 24.83  1.2340 2.0816 137.7 22.0 .578   8
2020 10 20 05  04 23 09.475   -01 21 07.13  1.2338 2.0818 137.8 22.0 .596   7
2020 10 20 06  04 23 06.855   -01 20 49.42  1.2337 2.0819 137.8 22.0 .614   7
2020 10 20 07  04 23 04.231   -01 20 31.68  1.2336 2.0821 137.9 22.0 .633   6
2020 10 20 08  04 23 01.603   -01 20 13.93  1.2334 2.0823 137.9 22.0 .652   6
2020 10 20 09  04 22 58.972   -01 19 56.16  1.2333 2.0824 138.0 22.0 .672   5
2020 10 20 10  04 22 56.336   -01 19 38.36  1.2331 2.0826 138.0 22.0 .691   4
2020 10 20 11  04 22 53.697   -01 19 20.55  1.2330 2.0828 138.1 22.0 .711   4
2020 10 20 12  04 22 51.053   -01 19 02.71  1.2328 2.0830 138.1 22.0 .732   3
2020 10 20 13  04 22 48.406   -01 18 44.86  1.2327 2.0831 138.2 22.0 .752   3
2020 10 20 14  04 22 45.755   -01 18 26.99  1.2325 2.0833 138.2 22.0 .773   2
2020 10 20 15  04 22 43.100   -01 18 09.09  1.2324 2.0835 138.2 22.0 .794   2
2020 10 20 16  04 22 40.441   -01 17 51.18  1.2323 2.0836 138.3 22.0 .816   1
2020 10 20 17  04 22 37.778   -01 17 33.25  1.2321 2.0838 138.3 22.0 .837   1
2020 10 20 18  04 22 35.112   -01 17 15.29  1.2320 2.0840 138.4 22.0 .860   0
2020 10 20 19  04 22 32.441   -01 16 57.32  1.2318 2.0841 138.4 22.0 .882   0
2020 10 20 20  04 22 29.767   -01 16 39.33  1.2317 2.0843 138.5 22.0 .905 179
2020 10 20 21  04 22 27.089   -01 16 21.31  1.2316 2.0845 138.5 22.0 .928 179
2020 10 20 22  04 22 24.407   -01 16 03.28  1.2314 2.0846 138.6 22.0 .951 178